Regional Weather Roundup
Issued by NWS Midland/Odessa, TX

Home | Current Version | Previous Version | Text Only | Print | Product List | Glossary On
Versions: 1 2 3 4 5 6 7 8 9 10 11 12 13 14 15 16 17 18 19 20 21 22 23 24 25 26 27 28 29 30 31 32 33 34 35 36 37 38 39 40 41 42 43 44 45 46 47 48 49 50
000
ASUS44 KMAF 241010
RWRMAF
MIDLAND AREA WEATHER ROUNDUP
NATIONAL WEATHER SERVICE MIDLAND TX
400 AM CST TUE JAN 24 2017

...IN SOUTHWEST TEXAS AND SOUTHEAST NEW MEXICO...

CITY           SKY/WX    TMP DP  RH WIND       PRES   REMARKS
ALPINE         CLEAR     62  25  23 SW16      29.81F
ANDREWS        FAIR      50  32  49 SW10      29.64S
ARTESIA        CLEAR     52  28  40 SW14      29.62S
BIG SPRING     CLEAR     50  34  53 SE16      29.65F
CARLSBAD       CLEAR     54  27  35 S13       29.61F
DRYDEN           N/A     50  34  54 N6        29.69F
FORT STOCKTON  CLEAR     59  29  31 SW12      29.67F
GUAD PASS      CLEAR     50  23  34 SW29G40   29.71R
HOBBS          NOT AVBL
MARFA          CLOUDY    33  27  78 NW3       29.81S
MIDLAND AIRPK  CLEAR     56  33  41 S13       29.64F
MIDLAND INTL   CLEAR     55  33  43 S14       29.63F
ODESSA         CLEAR     56  32  40 S12       29.63F
PECOS          CLEAR     41  33  74 NW6       29.65S WCI  37
PRESIDIO       FAIR      60  27  28 N6        29.72R
SEMINOLE       CLEAR     46  32  57 SW10      29.64S
SNYDER         CLEAR     50  34  53 S13       29.63F
WINK           CLEAR     43  33  68 S6        29.64R WCI  39
$$
...OTHER STATIONS IN TEXAS...

CITY           SKY/WX    TMP DP  RH WIND       PRES   REMARKS
ABILENE        CLEAR     58  30  34 S17G26    29.64F
AMARILLO       CLEAR     47  28  47 S21       29.55F WCI  39
AUSTIN         CLEAR     43  37  79 CALM      29.77F
BROWNSVILLE    CLEAR     60  58  92 S8        29.83F
CORPUS CHRISTI PTCLDY    57  55  93 S12       29.79F
DALLAS FTW     MOCLDY    48  39  71 SE8       29.67F
DEL RIO        CLOUDY    56  31  38 E10       29.69F
EL PASO        PTCLDY    53  28  38 SW20G26   29.70S
HOUSTON INT    PTCLDY    51  47  86 S6        29.82F
LUBBOCK        PTCLDY    52  33  48 SW14      29.60F
SAN ANGELO     PTCLDY    57  32  38 S15       29.65F
SAN ANTONIO    CLEAR     45  38  76 NW3       29.78F
WACO           CLOUDY    57  39  51 S15       29.71F
WICHITA FALLS  NOT AVBL
$$
...OTHER LOCATIONS IN NEW MEXICO...

CITY           SKY/WX    TMP DP  RH WIND       PRES   REMARKS
ALAMAGORDO     CLEAR     45  32  61 S10       29.71S WCI  39
ALBUQUERQUE    CLOUDY    37  30  75 NW8       29.64S WCI  31
CANNON AFB     CLOUDY    45  27  50 SW15      29.57F WCI  38
CLOVIS         CLOUDY    45  27  49 S17       29.57F WCI  37
HOLLOMAN AFB   CLEAR     49  29  46 SW17      29.71F
ROSWELL        CLEAR     45  28  51 SW9       29.59F
RUIDOSO        CLOUDY    41  23  48 SW39G49   29.64S WCI  28
SANTA FE       FLURRIES  32  28  85 SW9       29.62F WCI  24
TRUTH OR CONSE CLEAR     45  33  63 W14G26    29.66R WCI  38
TUCUMCARI      CLEAR     45  29  53 SW17      29.51S WCI  38
$$



USA.gov is the U.S. government's official web portal to all federal, state and local government web resources and services.